Location: Zagreb
(45.8000°N, 16.0000°E)
Time: 01:42:55
(UTC+02:00)

Transit 2A Rocket - Pass Details

Date: 31 January 2022
Orbit: 592 x 909 km, 66.7° (Epoch: 26 May)

Event Time Altitude Azimuth Distance (km) Brightness Sun altitude
Rises 00:25:23 0° 330° (NNW) 3,475 - -61.5°
Reaches altitude 10° 00:28:30 10° 345° (NNW) 2,491 - -61.4°
Maximum altitude 00:33:00 23° 36° (NE) 1,680 - -61.2°
Drops below altitude 10° 00:37:13 10° 88° (E) 2,323 - -61.1°
Sets 00:40:00 0° 103° (ESE) 3,186 - -60.9°
